Time,TemperatureF,DewpointF,PressureIn,WindDirection,WindDirectionDegrees,WindSpeedMPH,WindSpeedGustMPH,Humidity,HourlyPrecipIn,Conditions,Clouds,dailyrainin,SoftwareType,DateUTC
2013-09-11 00:03:00,63.5,55.4,0.00,South,183,0.0,0.0,75,0.00,,,0.00,VWS V13.01,2013-09-11 05:03:00,
2013-09-11 00:08:00,63.5,55.4,0.00,South,183,0.0,0.0,75,0.00,,,0.00,VWS V13.01,2013-09-11 05:08:00,
2013-09-11 00:13:00,63.3,55.3,0.00,South,183,0.0,0.0,75,0.00,,,0.00,VWS V13.01,2013-09-11 05:13:00,
2013-09-11 00:18:00,63.0,54.5,0.00,South,183,0.0,0.0,74,0.00,,,0.00,VWS V13.01,2013-09-11 05:18:00,
2013-09-11 00:23:00,62.8,54.4,0.00,South,183,0.0,0.0,74,0.00,,,0.00,VWS V13.01,2013-09-11 05:23:00,
2013-09-11 00:28:00,62.8,54.8,0.00,South,183,0.0,0.0,75,0.00,,,0.00,VWS V13.01,2013-09-11 05:28:00,
2013-09-11 00:33:00,62.8,54.8,0.00,South,183,0.0,0.0,75,0.00,,,0.00,VWS V13.01,2013-09-11 05:33:00,
2013-09-11 00:38:00,63.0,54.9,0.00,South,183,0.0,0.0,75,0.00,,,0.00,VWS V13.01,2013-09-11 05:38:00,
2013-09-11 00:43:00,63.0,54.9,0.00,South,183,0.0,0.0,75,0.00,,,0.00,VWS V13.01,2013-09-11 05:43:00,
2013-09-11 00:48:00,63.0,54.9,0.00,South,183,0.0,0.0,75,0.00,,,0.00,VWS V13.01,2013-09-11 05:48:00,
2013-09-11 00:53:00,63.0,54.9,0.00,South,183,0.0,0.0,75,0.00,,,0.00,VWS V13.01,2013-09-11 05:53:00,
2013-09-11 00:58:00,62.8,54.4,0.00,South,183,0.0,0.0,74,0.00,,,0.00,VWS V13.01,2013-09-11 05:58:00,
2013-09-11 01:03:00,62.6,54.2,0.00,South,183,0.0,0.0,74,0.00,,,0.00,VWS V13.01,2013-09-11 06:03:00,
2013-09-11 01:08:00,62.4,54.0,0.00,South,183,0.0,0.0,74,0.00,,,0.00,VWS V13.01,2013-09-11 06:08:00,
2013-09-11 01:13:00,62.2,53.9,0.00,South,183,0.0,0.0,74,0.00,,,0.00,VWS V13.01,2013-09-11 06:13:00,
2013-09-11 01:18:00,62.1,53.7,0.00,South,183,0.0,0.0,74,0.00,,,0.00,VWS V13.01,2013-09-11 06:18:00,
2013-09-11 01:23:00,61.9,53.5,0.00,South,183,0.0,0.0,74,0.00,,,0.00,VWS V13.01,2013-09-11 06:23:00,
2013-09-11 01:28:00,61.9,53.5,0.00,South,183,0.0,0.0,74,0.00,,,0.00,VWS V13.01,2013-09-11 06:28:00,
2013-09-11 01:33:00,61.7,53.3,0.00,South,183,0.0,0.0,74,0.00,,,0.00,VWS V13.01,2013-09-11 06:33:00,
2013-09-11 01:38:00,61.9,53.5,0.00,South,183,0.0,0.0,74,0.00,,,0.00,VWS V13.01,2013-09-11 06:38:00,
2013-09-11 01:43:00,61.9,53.5,0.00,South,183,0.0,0.0,74,0.00,,,0.00,VWS V13.01,2013-09-11 06:43:00,
2013-09-11 01:48:00,61.9,53.5,0.00,South,183,0.0,0.0,74,0.00,,,0.00,VWS V13.01,2013-09-11 06:48:00,
2013-09-11 01:53:00,61.9,53.1,0.00,South,183,0.0,0.0,73,0.00,,,0.00,VWS V13.01,2013-09-11 06:53:00,
2013-09-11 01:58:00,61.9,53.1,0.00,South,183,0.0,0.0,73,0.00,,,0.00,VWS V13.01,2013-09-11 06:58:00,
2013-09-11 02:03:00,61.9,53.1,0.00,South,183,0.0,0.0,73,0.00,,,0.00,VWS V13.01,2013-09-11 07:03:00,
2013-09-11 02:08:00,61.9,53.1,0.00,South,183,0.0,0.0,73,0.00,,,0.00,VWS V13.01,2013-09-11 07:08:00,
2013-09-11 02:13:00,61.7,53.0,0.00,South,183,0.0,0.0,73,0.00,,,0.00,VWS V13.01,2013-09-11 07:13:00,
2013-09-11 02:18:00,61.9,53.1,0.00,South,183,0.0,0.0,73,0.00,,,0.00,VWS V13.01,2013-09-11 07:18:00,
2013-09-11 02:23:00,61.9,53.1,0.00,South,183,0.0,0.0,73,0.00,,,0.00,VWS V13.01,2013-09-11 07:23:00,
2013-09-11 02:28:00,61.9,53.1,0.00,South,183,0.0,0.0,73,0.00,,,0.00,VWS V13.01,2013-09-11 07:28:00,
2013-09-11 02:33:00,61.7,53.0,0.00,South,183,0.0,0.0,73,0.00,,,0.00,VWS V13.01,2013-09-11 07:33:00,
2013-09-11 02:38:00,61.5,52.8,0.00,South,183,0.0,0.0,73,0.00,,,0.00,VWS V13.01,2013-09-11 07:38:00,
2013-09-11 02:43:00,61.3,52.6,0.00,South,183,0.0,0.0,73,0.00,,,0.00,VWS V13.01,2013-09-11 07:43:00,
2013-09-11 02:48:00,61.0,51.9,0.00,South,183,0.0,0.0,72,0.00,,,0.00,VWS V13.01,2013-09-11 07:48:00,
2013-09-11 02:53:00,60.8,51.7,0.00,South,183,0.0,0.0,72,0.00,,,0.00,VWS V13.01,2013-09-11 07:53:00,
2013-09-11 02:58:00,60.6,51.9,0.00,South,183,0.0,0.0,73,0.00,,,0.00,VWS V13.01,2013-09-11 07:58:00,
2013-09-11 03:03:00,60.6,51.9,0.00,South,183,0.0,0.0,73,0.00,,,0.00,VWS V13.01,2013-09-11 08:03:00,
2013-09-11 03:08:00,60.6,51.9,0.00,South,183,0.0,0.0,73,0.00,,,0.00,VWS V13.01,2013-09-11 08:08:00,
2013-09-11 03:13:00,60.6,51.9,0.00,South,183,0.0,0.0,73,0.00,,,0.00,VWS V13.01,2013-09-11 08:13:00,
2013-09-11 03:18:00,60.6,51.9,0.00,South,183,0.0,0.0,73,0.00,,,0.00,VWS V13.01,2013-09-11 08:18:00,
2013-09-11 03:23:00,60.6,51.9,0.00,South,183,0.0,0.0,73,0.00,,,0.00,VWS V13.01,2013-09-11 08:23:00,
2013-09-11 03:28:00,60.6,51.9,0.00,South,183,0.0,0.0,73,0.00,,,0.00,VWS V13.01,2013-09-11 08:28:00,
2013-09-11 03:33:00,60.6,51.9,0.00,South,183,0.0,0.0,73,0.00,,,0.00,VWS V13.01,2013-09-11 08:33:00,
2013-09-11 03:38:00,60.6,51.9,0.00,South,183,0.0,0.0,73,0.00,,,0.00,VWS V13.01,2013-09-11 08:38:00,
2013-09-11 03:43:00,60.4,51.8,0.00,South,183,0.0,0.0,73,0.00,,,0.00,VWS V13.01,2013-09-11 08:43:00,
2013-09-11 03:48:00,60.4,51.8,0.00,South,183,0.0,0.0,73,0.00,,,0.00,VWS V13.01,2013-09-11 08:48:00,
2013-09-11 03:54:00,60.4,51.8,0.00,South,183,0.0,0.0,73,0.00,,,0.00,VWS V13.01,2013-09-11 08:54:00,
2013-09-11 03:59:00,60.4,51.8,0.00,South,183,0.0,0.0,73,0.00,,,0.00,VWS V13.01,2013-09-11 08:59:00,
2013-09-11 04:04:00,60.4,51.8,0.00,South,183,0.0,0.0,73,0.00,,,0.00,VWS V13.01,2013-09-11 09:04:00,
2013-09-11 04:09:00,60.4,52.1,0.00,South,183,0.0,0.0,74,0.00,,,0.00,VWS V13.01,2013-09-11 09:09:00,
2013-09-11 04:14:00,60.4,52.1,0.00,South,183,0.0,0.0,74,0.00,,,0.00,VWS V13.01,2013-09-11 09:14:00,
2013-09-11 04:19:00,60.4,51.8,0.00,South,183,0.0,0.0,73,0.00,,,0.00,VWS V13.01,2013-09-11 09:19:00,
2013-09-11 04:24:00,60.3,51.6,0.00,South,183,0.0,0.0,73,0.00,,,0.00,VWS V13.01,2013-09-11 09:24:00,
2013-09-11 04:29:00,60.3,51.6,0.00,South,183,0.0,0.0,73,0.00,,,0.00,VWS V13.01,2013-09-11 09:29:00,
2013-09-11 04:34:00,60.1,51.4,0.00,South,183,0.0,0.0,73,0.00,,,0.00,VWS V13.01,2013-09-11 09:34:00,
2013-09-11 04:39:00,59.9,51.2,0.00,South,183,0.0,0.0,73,0.00,,,0.00,VWS V13.01,2013-09-11 09:39:00,
2013-09-11 04:45:00,59.7,51.1,0.00,South,183,0.0,0.0,73,0.00,,,0.00,VWS V13.01,2013-09-11 09:45:00,
2013-09-11 04:50:00,59.5,50.9,0.00,South,183,0.0,0.0,73,0.00,,,0.00,VWS V13.01,2013-09-11 09:50:00,
2013-09-11 04:55:00,59.5,50.9,0.00,South,183,0.0,0.0,73,0.00,,,0.00,VWS V13.01,2013-09-11 09:55:00,
2013-09-11 05:00:00,59.4,50.7,0.00,South,183,0.0,0.0,73,0.00,,,0.00,VWS V13.01,2013-09-11 10:00:00,
2013-09-11 05:05:00,59.2,50.5,0.00,South,183,0.0,0.0,73,0.00,,,0.00,VWS V13.01,2013-09-11 10:05:00,
2013-09-11 05:10:00,59.2,50.5,0.00,South,183,0.0,0.0,73,0.00,,,0.00,VWS V13.01,2013-09-11 10:10:00,
2013-09-11 05:15:00,59.0,50.7,0.00,South,183,0.0,0.0,74,0.00,,,0.00,VWS V13.01,2013-09-11 10:15:00,
2013-09-11 05:20:00,58.8,50.6,0.00,South,183,0.0,0.0,74,0.00,,,0.00,VWS V13.01,2013-09-11 10:20:00,
2013-09-11 05:25:00,58.8,50.6,0.00,South,183,0.0,0.0,74,0.00,,,0.00,VWS V13.01,2013-09-11 10:25:00,
2013-09-11 05:30:00,58.8,50.6,0.00,South,183,0.0,0.0,74,0.00,,,0.00,VWS V13.01,2013-09-11 10:30:00,
2013-09-11 05:35:00,58.8,50.9,0.00,South,183,0.0,0.0,75,0.00,,,0.00,VWS V13.01,2013-09-11 10:35:00,
2013-09-11 05:40:00,58.8,50.9,0.00,South,183,0.0,0.0,75,0.00,,,0.00,VWS V13.01,2013-09-11 10:40:00,
2013-09-11 05:45:00,58.8,50.9,0.00,South,183,0.0,0.0,75,0.00,,,0.00,VWS V13.01,2013-09-11 10:45:00,
2013-09-11 05:50:00,58.6,50.8,0.00,South,183,0.0,0.0,75,0.00,,,0.00,VWS V13.01,2013-09-11 10:50:00,
2013-09-11 05:55:00,58.6,50.8,0.00,South,183,0.0,0.0,75,0.00,,,0.00,VWS V13.01,2013-09-11 10:55:00,
2013-09-11 06:00:00,58.6,50.8,0.00,South,183,0.0,0.0,75,0.00,,,0.00,VWS V13.01,2013-09-11 11:00:00,
2013-09-11 06:05:00,58.6,51.1,0.00,South,183,0.0,0.0,76,0.00,,,0.00,VWS V13.01,2013-09-11 11:05:00,
2013-09-11 06:10:00,58.5,50.9,0.00,South,183,0.0,0.0,76,0.00,,,0.00,VWS V13.01,2013-09-11 11:10:00,
2013-09-11 06:15:00,58.5,50.9,0.00,South,183,0.0,0.0,76,0.00,,,0.00,VWS V13.01,2013-09-11 11:15:00,
2013-09-11 06:20:00,58.5,50.9,0.00,South,183,0.0,0.0,76,0.00,,,0.00,VWS V13.01,2013-09-11 11:20:00,
2013-09-11 06:25:00,58.5,51.3,0.00,South,183,0.0,0.0,77,0.00,,,0.00,VWS V13.01,2013-09-11 11:25:00,
2013-09-11 06:30:00,58.5,50.9,0.00,South,183,0.0,0.0,76,0.00,,,0.00,VWS V13.01,2013-09-11 11:30:00,
2013-09-11 06:35:00,58.5,51.3,0.00,South,183,0.0,0.0,77,0.00,,,0.00,VWS V13.01,2013-09-11 11:35:00,
2013-09-11 06:40:00,58.5,51.3,0.00,South,183,0.0,0.0,77,0.00,,,0.00,VWS V13.01,2013-09-11 11:40:00,
2013-09-11 06:45:00,58.3,51.1,0.00,South,183,0.0,0.0,77,0.00,,,0.00,VWS V13.01,2013-09-11 11:45:00,
2013-09-11 06:50:00,58.3,51.1,0.00,South,183,0.0,0.0,77,0.00,,,0.00,VWS V13.01,2013-09-11 11:50:00,
2013-09-11 06:55:00,58.1,50.9,0.00,South,183,0.0,0.0,77,0.00,,,0.00,VWS V13.01,2013-09-11 11:55:00,
2013-09-11 07:00:00,58.1,50.9,0.00,South,183,0.0,0.0,77,0.00,,,0.00,VWS V13.01,2013-09-11 12:00:00,
2013-09-11 07:05:00,58.3,51.1,0.00,South,183,0.0,0.0,77,0.00,,,0.00,VWS V13.01,2013-09-11 12:05:00,
2013-09-11 07:10:00,58.5,51.6,0.00,South,183,0.0,0.0,78,0.00,,,0.00,VWS V13.01,2013-09-11 12:10:00,
2013-09-11 07:15:00,58.3,51.1,0.00,South,183,0.0,0.0,77,0.00,,,0.00,VWS V13.01,2013-09-11 12:15:00,
2013-09-11 07:20:00,58.1,50.9,0.00,South,183,0.0,0.0,77,0.00,,,0.00,VWS V13.01,2013-09-11 12:20:00,
2013-09-11 07:25:00,58.1,50.9,0.00,South,183,0.0,0.0,77,0.00,,,0.00,VWS V13.01,2013-09-11 12:25:00,
2013-09-11 07:30:00,57.9,50.8,0.00,South,183,0.0,0.0,77,0.00,,,0.00,VWS V13.01,2013-09-11 12:30:00,
2013-09-11 07:35:00,57.9,51.1,0.00,South,183,0.0,0.0,78,0.00,,,0.00,VWS V13.01,2013-09-11 12:35:00,
2013-09-11 07:40:00,57.9,51.1,0.00,South,183,0.0,0.0,78,0.00,,,0.00,VWS V13.01,2013-09-11 12:40:00,
2013-09-11 07:45:00,58.3,51.8,0.00,South,183,0.0,0.0,79,0.00,,,0.00,VWS V13.01,2013-09-11 12:45:00,
2013-09-11 07:50:00,59.0,52.5,0.00,South,183,0.0,0.0,79,0.00,,,0.00,VWS V13.01,2013-09-11 12:50:00,
2013-09-11 07:55:00,60.1,53.9,0.00,South,169,0.0,0.0,80,0.00,,,0.00,VWS V13.01,2013-09-11 12:55:00,
2013-09-11 08:00:00,61.2,55.0,0.00,SSE,162,3.1,3.1,80,0.00,,,0.00,VWS V13.01,2013-09-11 13:00:00,
2013-09-11 08:05:00,61.9,55.3,0.00,South,179,6.3,6.3,79,0.00,,,0.00,VWS V13.01,2013-09-11 13:05:00,
2013-09-11 08:10:00,62.2,55.7,0.00,South,177,2.7,5.4,79,0.00,,,0.00,VWS V13.01,2013-09-11 13:10:00,
2013-09-11 08:15:00,62.6,55.3,0.00,South,177,3.1,4.0,77,0.00,,,0.00,VWS V13.01,2013-09-11 13:15:00,
2013-09-11 08:20:00,63.0,55.3,0.00,SSE,168,4.5,4.5,76,0.00,,,0.00,VWS V13.01,2013-09-11 13:20:00,
2013-09-11 08:25:00,63.5,55.1,0.00,South,182,3.6,4.0,74,0.00,,,0.00,VWS V13.01,2013-09-11 13:25:00,
2013-09-11 08:30:00,64.2,55.4,0.00,South,185,0.0,2.2,73,0.00,,,0.00,VWS V13.01,2013-09-11 13:30:00,
2013-09-11 08:35:00,64.9,55.7,0.00,South,172,2.7,2.7,72,0.00,,,0.00,VWS V13.01,2013-09-11 13:35:00,
2013-09-11 08:40:00,65.7,56.4,0.00,SSW,208,2.7,3.1,72,0.00,,,0.00,VWS V13.01,2013-09-11 13:40:00,
2013-09-11 08:45:00,66.2,55.7,0.00,South,181,2.7,2.7,69,0.00,,,0.00,VWS V13.01,2013-09-11 13:45:00,
2013-09-11 08:50:00,66.7,55.5,0.00,SSW,213,0.0,0.0,67,0.00,,,0.00,VWS V13.01,2013-09-11 13:50:00,
2013-09-11 08:55:00,67.3,55.5,0.00,SW,218,0.0,0.0,66,0.00,,,0.00,VWS V13.01,2013-09-11 13:55:00,
2013-09-11 09:00:00,67.5,54.9,0.00,South,191,0.0,0.0,64,0.00,,,0.00,VWS V13.01,2013-09-11 14:00:00,
2013-09-11 09:05:00,68.0,54.1,0.00,South,178,0.0,0.0,61,0.00,,,0.00,VWS V13.01,2013-09-11 14:05:00,
2013-09-11 09:10:00,68.0,51.7,0.00,South,182,2.7,4.0,56,0.00,,,0.00,VWS V13.01,2013-09-11 14:10:00,
2013-09-11 09:15:00,68.2,49.4,0.00,SW,219,0.0,4.0,51,0.00,,,0.00,VWS V13.01,2013-09-11 14:15:00,
2013-09-11 09:20:00,68.2,49.4,0.00,South,191,4.0,4.0,51,0.00,,,0.00,VWS V13.01,2013-09-11 14:20:00,
2013-09-11 09:25:00,68.4,47.4,0.00,South,181,2.2,5.4,47,0.00,,,0.00,VWS V13.01,2013-09-11 14:25:00,
2013-09-11 09:30:00,68.5,48.1,0.00,SE,146,0.0,3.1,48,0.00,,,0.00,VWS V13.01,2013-09-11 14:30:00,
2013-09-11 09:35:00,68.5,47.0,0.00,SSW,205,0.0,0.0,46,0.00,,,0.00,VWS V13.01,2013-09-11 14:35:00,
2013-09-11 09:40:00,68.7,46.0,0.00,South,175,6.3,6.3,44,0.00,,,0.00,VWS V13.01,2013-09-11 14:40:00,
2013-09-11 09:45:00,68.9,47.3,0.00,SW,214,4.0,4.0,46,0.00,,,0.00,VWS V13.01,2013-09-11 14:45:00,
2013-09-11 09:50:00,69.6,48.0,0.00,SSW,198,0.0,3.1,46,0.00,,,0.00,VWS V13.01,2013-09-11 14:50:00,
2013-09-11 09:55:00,70.0,45.9,0.00,SSW,199,6.3,6.3,42,0.00,,,0.00,VWS V13.01,2013-09-11 14:55:00,
2013-09-11 10:00:00,70.3,46.2,0.00,WSW,245,0.0,5.4,42,0.00,,,0.00,VWS V13.01,2013-09-11 15:00:00,
2013-09-11 10:05:00,70.7,45.9,0.00,South,177,2.7,4.9,41,0.00,,,0.00,VWS V13.01,2013-09-11 15:05:00,
2013-09-11 10:10:00,71.1,45.5,0.00,South,185,6.3,6.3,40,0.00,,,0.00,VWS V13.01,2013-09-11 15:10:00,
2013-09-11 10:15:00,71.8,46.2,0.00,SW,224,2.7,2.7,40,0.00,,,0.00,VWS V13.01,2013-09-11 15:15:00,
2013-09-11 10:20:00,72.0,46.3,0.00,WNW,300,0.0,0.0,40,0.00,,,0.00,VWS V13.01,2013-09-11 15:20:00,
2013-09-11 10:25:00,72.3,46.7,0.00,WNW,300,0.0,0.0,40,0.00,,,0.00,VWS V13.01,2013-09-11 15:25:00,
2013-09-11 10:30:00,72.7,46.3,0.00,ESE,114,2.2,2.2,39,0.00,,,0.00,VWS V13.01,2013-09-11 15:30:00,
2013-09-11 10:35:00,73.2,47.5,0.00,SW,234,2.2,2.2,40,0.00,,,0.00,VWS V13.01,2013-09-11 15:35:00,
2013-09-11 10:40:00,74.1,46.2,0.00,SSW,204,0.0,0.0,37,0.00,,,0.00,VWS V13.01,2013-09-11 15:40:00,
2013-09-11 10:45:00,74.7,46.7,0.00,SW,214,3.1,3.1,37,0.00,,,0.00,VWS V13.01,2013-09-11 15:45:00,
2013-09-11 10:50:00,75.2,45.7,0.00,SW,235,0.0,0.0,35,0.00,,,0.00,VWS V13.01,2013-09-11 15:50:00,
2013-09-11 10:55:00,75.6,46.0,0.00,SSE,162,0.0,0.0,35,0.00,,,0.00,VWS V13.01,2013-09-11 15:55:00,
2013-09-11 11:00:00,76.3,46.7,0.00,SW,217,0.0,0.0,35,0.00,,,0.00,VWS V13.01,2013-09-11 16:00:00,
2013-09-11 11:05:00,76.5,44.4,0.00,WSW,248,0.0,0.0,32,0.00,,,0.00,VWS V13.01,2013-09-11 16:05:00,
2013-09-11 11:10:00,76.6,44.6,0.00,SW,224,0.0,0.0,32,0.00,,,0.00,VWS V13.01,2013-09-11 16:10:00,
2013-09-11 11:15:00,76.6,43.8,0.00,WSW,255,0.0,0.0,31,0.00,,,0.00,VWS V13.01,2013-09-11 16:15:00,
2013-09-11 11:20:00,76.8,43.9,0.00,WNW,292,0.0,0.0,31,0.00,,,0.00,VWS V13.01,2013-09-11 16:20:00,
2013-09-11 11:25:00,77.4,44.4,0.00,SW,217,0.0,0.0,31,0.00,,,0.00,VWS V13.01,2013-09-11 16:25:00,
2013-09-11 11:30:00,77.7,43.8,0.00,West,267,2.7,3.1,30,0.00,,,0.00,VWS V13.01,2013-09-11 16:30:00,
2013-09-11 11:35:00,78.3,44.3,0.00,WSW,242,3.1,3.1,30,0.00,,,0.00,VWS V13.01,2013-09-11 16:35:00,
2013-09-11 11:40:00,78.6,44.6,0.00,West,265,0.0,2.7,30,0.00,,,0.00,VWS V13.01,2013-09-11 16:40:00,
2013-09-11 11:45:00,78.8,43.9,0.00,SSW,208,2.2,2.2,29,0.00,,,0.00,VWS V13.01,2013-09-11 16:45:00,
2013-09-11 11:50:00,78.8,42.0,0.00,WSW,258,0.0,0.0,27,0.00,,,0.00,VWS V13.01,2013-09-11 16:50:00,
2013-09-11 11:55:00,79.0,44.0,0.00,SE,128,0.0,0.0,29,0.00,,,0.00,VWS V13.01,2013-09-11 16:55:00,
2013-09-11 12:00:00,79.3,42.5,0.00,South,190,0.0,0.0,27,0.00,,,0.00,VWS V13.01,2013-09-11 17:00:00,
2013-09-11 12:05:00,78.6,41.9,0.00,WSW,253,0.0,0.0,27,0.00,,,0.00,VWS V13.01,2013-09-11 17:05:00,
2013-09-11 12:10:00,78.6,41.9,0.00,WNW,289,3.1,3.6,27,0.00,,,0.00,VWS V13.01,2013-09-11 17:10:00,
2013-09-11 12:15:00,79.2,41.4,0.00,SSW,206,0.0,2.2,26,0.00,,,0.00,VWS V13.01,2013-09-11 17:15:00,
2013-09-11 12:20:00,79.2,40.3,0.00,West,270,0.0,2.2,25,0.00,,,0.00,VWS V13.01,2013-09-11 17:20:00,
2013-09-11 12:25:00,78.6,40.9,0.00,WSW,240,3.6,4.0,26,0.00,,,0.00,VWS V13.01,2013-09-11 17:25:00,
2013-09-11 12:30:00,78.6,40.9,0.00,SE,138,2.7,4.0,26,0.00,,,0.00,VWS V13.01,2013-09-11 17:30:00,
2013-09-11 12:35:00,79.5,40.7,0.00,NW,305,0.0,0.0,25,0.00,,,0.00,VWS V13.01,2013-09-11 17:35:00,
2013-09-11 12:40:00,80.2,40.2,0.00,WSW,237,2.2,2.2,24,0.00,,,0.00,VWS V13.01,2013-09-11 17:40:00,
2013-09-11 12:45:00,80.8,39.6,0.00,West,268,2.7,3.6,23,0.00,,,0.00,VWS V13.01,2013-09-11 17:45:00,
2013-09-11 12:50:00,81.1,39.9,0.00,WNW,298,0.0,0.0,23,0.00,,,0.00,VWS V13.01,2013-09-11 17:50:00,
2013-09-11 12:55:00,81.7,40.3,0.00,WNW,292,4.0,4.5,23,0.00,,,0.00,VWS V13.01,2013-09-11 17:55:00,
2013-09-11 13:00:00,81.5,37.8,0.00,NW,306,3.6,4.0,21,0.00,,,0.00,VWS V13.01,2013-09-11 18:00:00,
2013-09-11 13:06:00,81.1,38.7,0.00,SSW,197,3.1,3.1,22,0.00,,,0.00,VWS V13.01,2013-09-11 18:06:00,
2013-09-11 13:11:00,81.5,36.6,0.00,NW,325,7.2,8.3,20,0.00,,,0.00,VWS V13.01,2013-09-11 18:11:00,
2013-09-11 13:16:00,81.1,36.3,0.00,NW,311,3.6,6.3,20,0.00,,,0.00,VWS V13.01,2013-09-11 18:16:00,
2013-09-11 13:21:00,81.1,36.3,0.00,NNW,328,5.4,7.2,20,0.00,,,0.00,VWS V13.01,2013-09-11 18:21:00,
2013-09-11 13:26:00,81.5,36.6,0.00,NNW,342,3.1,5.8,20,0.00,,,0.00,VWS V13.01,2013-09-11 18:26:00,
2013-09-11 13:31:00,81.5,36.6,0.00,NNW,345,5.4,5.8,20,0.00,,,0.00,VWS V13.01,2013-09-11 18:31:00,
2013-09-11 13:36:00,81.7,36.8,0.00,NNW,343,2.7,4.0,20,0.00,,,0.00,VWS V13.01,2013-09-11 18:36:00,
2013-09-11 13:41:00,82.0,37.0,0.00,SSW,192,2.7,4.0,20,0.00,,,0.00,VWS V13.01,2013-09-11 18:41:00,
2013-09-11 13:46:00,82.6,36.2,0.00,WSW,257,3.6,3.6,19,0.00,,,0.00,VWS V13.01,2013-09-11 18:46:00,
2013-09-11 13:51:00,82.8,36.3,0.00,WNW,288,3.6,3.6,19,0.00,,,0.00,VWS V13.01,2013-09-11 18:51:00,
2013-09-11 13:56:00,82.2,35.9,0.00,NW,307,2.2,5.4,19,0.00,,,0.00,VWS V13.01,2013-09-11 18:56:00,
2013-09-11 14:01:00,81.3,35.2,0.00,North,349,2.2,6.3,19,0.00,,,0.00,VWS V13.01,2013-09-11 19:01:00,
2013-09-11 14:06:00,81.3,36.5,0.00,NW,322,0.0,2.7,20,0.00,,,0.00,VWS V13.01,2013-09-11 19:06:00,
2013-09-11 14:11:00,82.0,37.0,0.00,North,357,5.8,5.8,20,0.00,,,0.00,VWS V13.01,2013-09-11 19:11:00,
2013-09-11 14:16:00,81.9,36.9,0.00,NNW,331,3.1,4.0,20,0.00,,,0.00,VWS V13.01,2013-09-11 19:16:00,
2013-09-11 14:21:00,81.9,36.9,0.00,SW,214,2.7,3.6,20,0.00,,,0.00,VWS V13.01,2013-09-11 19:21:00,
2013-09-11 14:26:00,81.9,35.6,0.00,NW,304,3.1,3.6,19,0.00,,,0.00,VWS V13.01,2013-09-11 19:26:00,
2013-09-11 14:31:00,81.9,36.9,0.00,SW,230,0.0,2.2,20,0.00,,,0.00,VWS V13.01,2013-09-11 19:31:00,
2013-09-11 14:36:00,82.0,37.0,0.00,WNW,286,2.7,2.7,20,0.00,,,0.00,VWS V13.01,2013-09-11 19:36:00,
2013-09-11 14:41:00,81.1,36.3,0.00,NW,315,3.1,3.6,20,0.00,,,0.00,VWS V13.01,2013-09-11 19:41:00,
2013-09-11 14:46:00,79.9,35.3,0.00,WNW,302,2.7,3.6,20,0.00,,,0.00,VWS V13.01,2013-09-11 19:46:00,
2013-09-11 14:51:00,79.5,35.0,0.00,WNW,286,0.0,3.6,20,0.00,,,0.00,VWS V13.01,2013-09-11 19:51:00,
2013-09-11 14:56:00,79.5,36.2,0.00,NNW,345,4.0,6.3,21,0.00,,,0.00,VWS V13.01,2013-09-11 19:56:00,
2013-09-11 15:01:00,79.0,35.8,0.00,West,281,0.0,2.7,21,0.00,,,0.00,VWS V13.01,2013-09-11 20:01:00,
2013-09-11 15:06:00,78.3,35.2,0.00,WNW,295,2.7,2.7,21,0.00,,,0.00,VWS V13.01,2013-09-11 20:06:00,
2013-09-11 15:11:00,78.1,35.0,0.00,WNW,301,0.0,0.0,21,0.00,,,0.00,VWS V13.01,2013-09-11 20:11:00,
2013-09-11 15:16:00,78.1,35.0,0.00,NW,326,3.1,3.1,21,0.00,,,0.00,VWS V13.01,2013-09-11 20:16:00,
2013-09-11 15:21:00,79.0,35.8,0.00,NNW,340,2.7,3.1,21,0.00,,,0.00,VWS V13.01,2013-09-11 20:21:00,
2013-09-11 15:26:00,78.8,35.6,0.00,NW,306,5.4,5.4,21,0.00,,,0.00,VWS V13.01,2013-09-11 20:26:00,
2013-09-11 15:31:00,78.1,35.0,0.00,NNW,338,5.4,11.0,21,0.00,,,0.00,VWS V13.01,2013-09-11 20:31:00,
2013-09-11 15:36:00,77.4,34.4,0.00,NW,326,2.2,6.3,21,0.00,,,0.00,VWS V13.01,2013-09-11 20:36:00,
2013-09-11 15:41:00,77.7,34.7,0.00,North,357,2.7,3.1,21,0.00,,,0.00,VWS V13.01,2013-09-11 20:41:00,
2013-09-11 15:46:00,78.4,35.3,0.00,North,0,3.6,3.6,21,0.00,,,0.00,VWS V13.01,2013-09-11 20:46:00,
2013-09-11 15:51:00,78.8,35.6,0.00,ENE,64,2.7,2.7,21,0.00,,,0.00,VWS V13.01,2013-09-11 20:51:00,
2013-09-11 15:56:00,78.8,34.4,0.00,NW,306,5.4,5.4,20,0.00,,,0.00,VWS V13.01,2013-09-11 20:56:00,
2013-09-11 16:01:00,78.1,35.0,0.00,NW,320,4.0,8.7,21,0.00,,,0.00,VWS V13.01,2013-09-11 21:01:00,
2013-09-11 16:06:00,77.5,34.6,0.00,NW,307,4.0,4.0,21,0.00,,,0.00,VWS V13.01,2013-09-11 21:06:00,
2013-09-11 16:11:00,77.5,34.6,0.00,NNW,327,2.7,4.5,21,0.00,,,0.00,VWS V13.01,2013-09-11 21:11:00,
2013-09-11 16:16:00,77.9,34.9,0.00,NNW,340,3.6,3.6,21,0.00,,,0.00,VWS V13.01,2013-09-11 21:16:00,
2013-09-11 16:21:00,78.3,35.2,0.00,WNW,291,3.6,3.6,21,0.00,,,0.00,VWS V13.01,2013-09-11 21:21:00,
2013-09-11 16:26:00,78.6,34.2,0.00,WNW,295,0.0,4.9,20,0.00,,,0.00,VWS V13.01,2013-09-11 21:26:00,
2013-09-11 16:31:00,78.6,34.2,0.00,WNW,303,3.6,5.4,20,0.00,,,0.00,VWS V13.01,2013-09-11 21:31:00,
2013-09-11 16:36:00,78.3,33.9,0.00,NNW,332,6.3,6.3,20,0.00,,,0.00,VWS V13.01,2013-09-11 21:36:00,
2013-09-11 16:41:00,78.3,33.9,0.00,North,0,5.4,5.4,20,0.00,,,0.00,VWS V13.01,2013-09-11 21:41:00,
2013-09-11 16:46:00,78.4,34.1,0.00,NNW,336,6.3,6.3,20,0.00,,,0.00,VWS V13.01,2013-09-11 21:46:00,
2013-09-11 16:51:00,78.3,33.9,0.00,NW,322,3.6,5.4,20,0.00,,,0.00,VWS V13.01,2013-09-11 21:51:00,
2013-09-11 16:56:00,78.3,33.9,0.00,NW,321,4.0,4.9,20,0.00,,,0.00,VWS V13.01,2013-09-11 21:56:00,
2013-09-11 17:01:00,78.1,33.8,0.00,WNW,294,5.4,5.8,20,0.00,,,0.00,VWS V13.01,2013-09-11 22:01:00,
2013-09-11 17:06:00,78.1,33.8,0.00,West,280,3.6,3.6,20,0.00,,,0.00,VWS V13.01,2013-09-11 22:06:00,
2013-09-11 17:11:00,77.7,30.9,0.00,North,5,2.7,5.4,18,0.00,,,0.00,VWS V13.01,2013-09-11 22:11:00,
2013-09-11 17:16:00,77.4,30.6,0.00,North,350,3.6,4.0,18,0.00,,,0.00,VWS V13.01,2013-09-11 22:16:00,
2013-09-11 17:21:00,77.0,30.3,0.00,NNW,333,3.1,4.5,18,0.00,,,0.00,VWS V13.01,2013-09-11 22:21:00,
2013-09-11 17:26:00,76.8,30.1,0.00,NNW,327,3.6,4.9,18,0.00,,,0.00,VWS V13.01,2013-09-11 22:26:00,
2013-09-11 17:31:00,76.6,30.0,0.00,NNW,328,3.6,5.4,18,0.00,,,0.00,VWS V13.01,2013-09-11 22:31:00,
2013-09-11 17:36:00,76.5,29.9,0.00,NNW,329,3.6,4.0,18,0.00,,,0.00,VWS V13.01,2013-09-11 22:36:00,
2013-09-11 17:41:00,76.3,29.7,0.00,NNW,331,2.7,2.7,18,0.00,,,0.00,VWS V13.01,2013-09-11 22:41:00,
2013-09-11 17:46:00,76.3,29.7,0.00,NW,325,3.1,4.0,18,0.00,,,0.00,VWS V13.01,2013-09-11 22:46:00,
2013-09-11 17:51:00,76.1,29.6,0.00,NW,315,9.2,9.2,18,0.00,,,0.00,VWS V13.01,2013-09-11 22:51:00,
2013-09-11 17:56:00,75.9,29.4,0.00,NW,308,3.1,4.9,18,0.00,,,0.00,VWS V13.01,2013-09-11 22:56:00,
2013-09-11 18:01:00,75.6,29.1,0.00,NW,319,2.7,3.1,18,0.00,,,0.00,VWS V13.01,2013-09-11 23:01:00,
2013-09-11 18:06:00,75.4,29.0,0.00,North,349,3.1,3.1,18,0.00,,,0.00,VWS V13.01,2013-09-11 23:06:00,
2013-09-11 18:11:00,74.8,28.5,0.00,WNW,300,2.2,5.4,18,0.00,,,0.00,VWS V13.01,2013-09-11 23:11:00,
2013-09-11 18:16:00,74.7,28.4,0.00,NNW,330,3.6,3.6,18,0.00,,,0.00,VWS V13.01,2013-09-11 23:16:00,
2013-09-11 18:21:00,74.5,28.2,0.00,NNW,346,4.0,5.4,18,0.00,,,0.00,VWS V13.01,2013-09-11 23:21:00,
2013-09-11 18:26:00,74.3,28.1,0.00,NW,326,3.1,3.1,18,0.00,,,0.00,VWS V13.01,2013-09-11 23:26:00,
2013-09-11 18:31:00,74.3,31.9,0.00,North,357,0.0,0.0,21,0.00,,,0.00,VWS V13.01,2013-09-11 23:31:00,
2013-09-11 18:36:00,74.1,31.7,0.00,NW,321,0.0,2.2,21,0.00,,,0.00,VWS V13.01,2013-09-11 23:36:00,
2013-09-11 18:41:00,73.9,31.6,0.00,North,353,4.0,4.0,21,0.00,,,0.00,VWS V13.01,2013-09-11 23:41:00,
2013-09-11 18:46:00,73.6,31.3,0.00,WNW,300,0.0,2.2,21,0.00,,,0.00,VWS V13.01,2013-09-11 23:46:00,
2013-09-11 18:51:00,73.4,31.1,0.00,North,353,3.6,3.6,21,0.00,,,0.00,VWS V13.01,2013-09-11 23:51:00,
2013-09-11 18:56:00,73.0,30.8,0.00,NNW,332,0.0,0.0,21,0.00,,,0.00,VWS V13.01,2013-09-11 23:56:00,
2013-09-11 19:01:00,72.7,30.5,0.00,NNW,331,0.0,0.0,21,0.00,,,0.00,VWS V13.01,2013-09-12 00:01:00,
2013-09-11 19:06:00,72.1,30.1,0.00,NNW,331,0.0,0.0,21,0.00,,,0.00,VWS V13.01,2013-09-12 00:06:00,
2013-09-11 19:11:00,71.4,30.6,0.00,NNW,331,0.0,0.0,22,0.00,,,0.00,VWS V13.01,2013-09-12 00:11:00,
2013-09-11 19:16:00,70.5,29.9,0.00,NNW,331,0.0,0.0,22,0.00,,,0.00,VWS V13.01,2013-09-12 00:16:00,
2013-09-11 19:21:00,69.4,29.0,0.00,NNW,331,0.0,0.0,22,0.00,,,0.00,VWS V13.01,2013-09-12 00:21:00,
2013-09-11 19:26:00,68.5,29.3,0.00,NNW,331,0.0,0.0,23,0.00,,,0.00,VWS V13.01,2013-09-12 00:26:00,
2013-09-11 19:31:00,67.6,29.6,0.00,NNW,331,0.0,0.0,24,0.00,,,0.00,VWS V13.01,2013-09-12 00:31:00,
2013-09-11 19:36:00,66.7,28.8,0.00,NNW,331,0.0,0.0,24,0.00,,,0.00,VWS V13.01,2013-09-12 00:36:00,
2013-09-11 19:41:00,66.0,30.2,0.00,NNW,331,0.0,0.0,26,0.00,,,0.00,VWS V13.01,2013-09-12 00:41:00,
2013-09-11 19:46:00,65.5,30.6,0.00,NNW,331,0.0,0.0,27,0.00,,,0.00,VWS V13.01,2013-09-12 00:46:00,
2013-09-11 19:51:00,64.8,30.9,0.00,NNW,331,0.0,0.0,28,0.00,,,0.00,VWS V13.01,2013-09-12 00:51:00,
2013-09-11 19:56:00,64.2,32.2,0.00,NNW,331,0.0,0.0,30,0.00,,,0.00,VWS V13.01,2013-09-12 00:56:00,
2013-09-11 20:01:00,64.0,33.6,0.00,NNW,331,0.0,0.0,32,0.00,,,0.00,VWS V13.01,2013-09-12 01:01:00,
2013-09-11 20:06:00,63.3,33.8,0.00,NNW,331,0.0,0.0,33,0.00,,,0.00,VWS V13.01,2013-09-12 01:06:00,
2013-09-11 20:11:00,62.6,33.9,0.00,NNW,331,0.0,0.0,34,0.00,,,0.00,VWS V13.01,2013-09-12 01:11:00,
2013-09-11 20:16:00,62.2,34.3,0.00,NNW,331,0.0,0.0,35,0.00,,,0.00,VWS V13.01,2013-09-12 01:16:00,
2013-09-11 20:21:00,61.7,33.8,0.00,NNW,331,0.0,0.0,35,0.00,,,0.00,VWS V13.01,2013-09-12 01:21:00,
2013-09-11 20:26:00,61.5,33.6,0.00,NNW,331,0.0,0.0,35,0.00,,,0.00,VWS V13.01,2013-09-12 01:26:00,
2013-09-11 20:31:00,61.2,34.0,0.00,NNW,331,0.0,0.0,36,0.00,,,0.00,VWS V13.01,2013-09-12 01:31:00,
2013-09-11 20:36:00,61.0,34.5,0.00,NNW,331,0.0,0.0,37,0.00,,,0.00,VWS V13.01,2013-09-12 01:36:00,
2013-09-11 20:41:00,60.6,34.2,0.00,NNW,331,0.0,0.0,37,0.00,,,0.00,VWS V13.01,2013-09-12 01:41:00,
2013-09-11 20:46:00,60.3,34.6,0.00,NNW,331,0.0,0.0,38,0.00,,,0.00,VWS V13.01,2013-09-12 01:46:00,
2013-09-11 20:51:00,59.7,34.7,0.00,NNW,331,0.0,0.0,39,0.00,,,0.00,VWS V13.01,2013-09-12 01:51:00,
2013-09-11 20:56:00,59.5,35.8,0.00,NNW,331,0.0,0.0,41,0.00,,,0.00,VWS V13.01,2013-09-12 01:56:00,
2013-09-11 21:01:00,59.2,35.5,0.00,NNW,331,0.0,0.0,41,0.00,,,0.00,VWS V13.01,2013-09-12 02:01:00,
2013-09-11 21:06:00,58.8,35.8,0.00,NNW,331,0.0,0.0,42,0.00,,,0.00,VWS V13.01,2013-09-12 02:06:00,
2013-09-11 21:11:00,58.6,36.8,0.00,NNW,331,0.0,0.0,44,0.00,,,0.00,VWS V13.01,2013-09-12 02:11:00,
2013-09-11 21:16:00,58.5,37.2,0.00,NNW,331,0.0,0.0,45,0.00,,,0.00,VWS V13.01,2013-09-12 02:16:00,
2013-09-11 21:21:00,58.1,36.9,0.00,NNW,331,0.0,0.0,45,0.00,,,0.00,VWS V13.01,2013-09-12 02:21:00,
2013-09-11 21:26:00,58.1,37.5,0.00,NNW,331,0.0,0.0,46,0.00,,,0.00,VWS V13.01,2013-09-12 02:26:00,
2013-09-11 21:31:00,57.9,37.3,0.00,NNW,331,0.0,0.0,46,0.00,,,0.00,VWS V13.01,2013-09-12 02:31:00,
2013-09-11 21:36:00,57.9,37.3,0.00,NNW,331,0.0,0.0,46,0.00,,,0.00,VWS V13.01,2013-09-12 02:36:00,
2013-09-11 21:41:00,57.6,37.5,0.00,NNW,331,0.0,0.0,47,0.00,,,0.00,VWS V13.01,2013-09-12 02:41:00,
2013-09-11 21:46:00,57.2,37.2,0.00,NNW,331,0.0,0.0,47,0.00,,,0.00,VWS V13.01,2013-09-12 02:46:00,
2013-09-11 21:51:00,57.0,37.5,0.00,NNW,331,0.0,0.0,48,0.00,,,0.00,VWS V13.01,2013-09-12 02:51:00,
2013-09-11 21:56:00,57.0,38.1,0.00,NNW,331,0.0,0.0,49,0.00,,,0.00,VWS V13.01,2013-09-12 02:56:00,
2013-09-11 22:01:00,57.0,38.6,0.00,NNW,331,0.0,0.0,50,0.00,,,0.00,VWS V13.01,2013-09-12 03:01:00,
2013-09-11 22:06:00,57.0,38.6,0.00,NNW,331,0.0,0.0,50,0.00,,,0.00,VWS V13.01,2013-09-12 03:06:00,
2013-09-11 22:11:00,57.0,39.1,0.00,NNW,331,0.0,0.0,51,0.00,,,0.00,VWS V13.01,2013-09-12 03:11:00,
2013-09-11 22:16:00,56.8,38.9,0.00,NNW,331,0.0,0.0,51,0.00,,,0.00,VWS V13.01,2013-09-12 03:16:00,
2013-09-11 22:21:00,56.5,38.6,0.00,NNW,331,0.0,0.0,51,0.00,,,0.00,VWS V13.01,2013-09-12 03:21:00,
2013-09-11 22:27:00,56.5,38.6,0.00,NNW,339,2.2,2.7,51,0.00,,,0.00,VWS V13.01,2013-09-12 03:27:00,
2013-09-11 22:32:00,56.3,38.9,0.00,NNW,339,0.0,0.0,52,0.00,,,0.00,VWS V13.01,2013-09-12 03:32:00,
2013-09-11 22:37:00,56.3,39.4,0.00,NNW,339,0.0,0.0,53,0.00,,,0.00,VWS V13.01,2013-09-12 03:37:00,
2013-09-11 22:42:00,56.5,40.0,0.00,NNW,339,0.0,0.0,54,0.00,,,0.00,VWS V13.01,2013-09-12 03:42:00,
2013-09-11 22:47:00,56.8,40.4,0.00,NNW,339,0.0,0.0,54,0.00,,,0.00,VWS V13.01,2013-09-12 03:47:00,
2013-09-11 22:52:00,56.8,40.9,0.00,NNW,339,0.0,0.0,55,0.00,,,0.00,VWS V13.01,2013-09-12 03:52:00,
2013-09-11 22:57:00,57.0,41.0,0.00,NNW,339,0.0,0.0,55,0.00,,,0.00,VWS V13.01,2013-09-12 03:57:00,
2013-09-11 23:01:00,57.2,41.2,0.00,NNW,339,0.0,0.0,55,0.00,,,0.00,VWS V13.01,2013-09-12 04:01:00,
2013-09-11 23:02:00,57.2,41.2,0.00,NNW,339,0.0,0.0,55,0.00,,,0.00,VWS V13.01,2013-09-12 04:02:00,
2013-09-11 23:07:00,57.2,41.2,0.00,NNW,339,0.0,0.0,55,0.00,,,0.00,VWS V13.01,2013-09-12 04:07:00,
2013-09-11 23:12:00,57.4,41.4,0.00,NNW,339,0.0,0.0,55,0.00,,,0.00,VWS V13.01,2013-09-12 04:12:00,
2013-09-11 23:17:00,57.9,42.3,0.00,NNW,329,0.0,0.0,56,0.00,,,0.00,VWS V13.01,2013-09-12 04:17:00,
2013-09-11 23:22:00,58.3,42.7,0.00,NNW,331,0.0,0.0,56,0.00,,,0.00,VWS V13.01,2013-09-12 04:22:00,
2013-09-11 23:27:00,58.8,43.2,0.00,NNW,338,4.0,4.9,56,0.00,,,0.00,VWS V13.01,2013-09-12 04:27:00,
2013-09-11 23:32:00,59.4,44.1,0.00,NNW,329,0.0,0.0,57,0.00,,,0.00,VWS V13.01,2013-09-12 04:32:00,
2013-09-11 23:37:00,60.3,44.5,0.00,West,280,0.0,0.0,56,0.00,,,0.00,VWS V13.01,2013-09-12 04:37:00,
2013-09-11 23:42:00,60.4,43.7,0.00,West,280,0.0,0.0,54,0.00,,,0.00,VWS V13.01,2013-09-12 04:42:00,
2013-09-11 23:47:00,60.4,42.8,0.00,NNW,327,0.0,0.0,52,0.00,,,0.00,VWS V13.01,2013-09-12 04:47:00,
2013-09-11 23:52:00,60.4,41.7,0.00,NNW,327,0.0,0.0,50,0.00,,,0.00,VWS V13.01,2013-09-12 04:52:00,
2013-09-11 23:57:00,60.4,41.2,0.00,NNW,328,0.0,0.0,49,0.00,,,0.00,VWS V13.01,2013-09-12 04:57:00,